Wind_Speed
5 6 6 6 6 5 1 3 1 0 0 2 2 4 6 9 10 11 11 10 7 8 8 8 8 8 11 11 12 13 11 9 7 7 6 12 25 26 25 27 24 23 22 20 19 17 15 13 12 11 11 10 10 10 9 8 7 7 7 7 8 8 8 10 10 10 11 13 14 14 15 15 16 17 17 17 18 19 19 20 19 19 18 17 17 16 15 16 15 15 16 16 17 18 17 17 17
7 7 6 6 4 1 1 1 0 1 0 2 4 6 9 11 11 11 11 9 8 10 10 10 11 11 13 14 14 16 15 16 17 13 11 23 30 26 27 25 24 23 21 20 19 16 14 14 13 13 13 11 10 10 9 7 7 7 8 8 8 7 8 9 10 11 11 13 14 14 15 16 16 17 17 18 19 19 19 20 19 19 18 17 16 16 15 15 14 15 15 16 17 17 17 16 16
9 5 3 3 2 1 1 1 0 1 1 1 6 8 9 10 11 12 11 11 12 14 11 10 10 8 12 15 14 15 15 16 22 16 13 24 23 21 26 23 23 22 21 20 18 16 15 14 14 15 14 12 10 9 9 8 8 8 9 9 9 8 9 9 10 11 11 13 14 15 15 15 16 16 18 18 18 19 19 19 19 18 17 17 16 15 14 14 14 14 15 16 17 17 16 16 15
9 3 3 2 1 1 1 1 1 1 2 3 6 8 9 11 13 13 12 13 13 13 10 10 9 7 12 16 14 14 14 15 20 17 13 20 22 24 26 23 22 21 21 19 17 17 16 15 14 14 14 13 10 9 8 9 9 9 9 9 9 9 9 10 10 10 11 12 13 14 14 15 15 16 18 19 18 18 18 18 18 18 17 16 16 15 14 14 14 15 15 16 16 16 16 16 15
7 3 4 3 0 0 0 1 2 1 3 3 7 9 11 13 14 14 12 13 12 12 10 9 10 10 12 14 11 10 13 14 18 20 18 23 26 26 25 23 22 21 22 19 18 17 16 15 14 14 14 13 11 9 9 10 10 10 10 10 10 10 10 10 11 11 11 11 12 13 14 15 15 15 17 18 19 18 18 18 18 18 17 16 15 15 15 15 15 15 15 15 16 16 16 15 14
7 3 5 2 1 1 1 1 2 2 3 3 6 11 13 14 13 14 13 13 12 12 11 10 13 14 12 12 11 10 14 15 16 20 23 26 26 24 23 23 22 22 21 19 19 18 17 16 15 14 13 13 11 10 11 10 10 10 10 10 10 10 10 11 11 11 11 12 12 13 14 16 16 15 16 18 19 19 18 18 18 17 16 17 16 16 16 16 16 15 15 15 15 15 15 14 14
7 5 2 1 1 1 2 1 2 1 0 4 6 13 14 14 12 13 13 13 12 12 12 12 14 14 12 12 12 14 18 18 18 21 26 27 25 24 23 22 23 22 20 20 20 19 17 15 15 15 14 14 12 11 11 10 10 9 10 10 9 9 10 11 11 11 11 12 13 14 14 15 16 16 16 17 18 18 18 17 17 16 16 17 17 17 17 16 16 15 15 15 15 15 14 14 14
6 3 0 0 1 1 2 1 1 1 2 4 8 14 14 14 11 12 12 11 10 11 13 15 15 14 14 14 12 15 22 24 24 27 28 26 24 23 22 22 23 22 20 20 20 18 16 15 15 14 15 13 12 11 10 10 9 9 10 10 9 9 9 10 11 11 12 13 13 14 15 14 15 17 16 17 18 18 18 17 17 17 16 17 17 17 17 16 16 15 15 15 14 14 13 14 14
5 1 1 1 0 1 0 1 1 2 5 4 11 13 12 13 11 11 10 10 10 10 13 16 15 15 16 17 14 15 22 27 28 28 26 25 24 22 21 21 21 22 20 20 19 17 16 15 15 15 14 13 12 11 10 10 10 10 10 9 9 10 10 10 11 11 12 13 14 14 15 15 16 16 15 16 18 18 18 17 17 16 16 17 17 17 16 16 15 14 14 14 14 13 14 14 14
4 2 1 1 1 1 0 0 2 0 4 6 13 13 11 11 11 11 10 11 11 10 15 17 17 17 17 17 14 14 20 26 28 26 24 24 23 22 21 21 22 22 20 20 18 16 15 15 15 14 14 13 12 11 10 9 10 10 9 9 10 10 11 11 12 12 13 13 14 14 16 17 16 16 16 16 18 19 18 17 16 16 16 16 16 16 16 15 15 14 14 14 14 13 13 13 12
1 1 0 1 1 1 0 2 2 2 3 9 11 11 9 10 11 10 11 11 11 13 17 16 16 18 18 15 11 16 24 25 26 25 23 23 22 22 20 20 21 21 21 20 19 17 15 14 15 14 14 14 12 11 10 10 10 10 9 10 11 11 12 12 13 13 14 14 14 15 16 17 15 16 17 17 18 18 17 17 16 16 15 16 15 15 16 16 15 14 14 14 14 13 13 13 12
1 1 1 2 1 0 2 3 4 3 5 10 11 9 8 10 11 11 12 11 12 15 16 14 14 16 16 14 10 18 25 23 24 24 23 23 23 21 19 21 22 21 21 20 19 17 15 13 14 14 14 14 13 12 11 11 11 10 10 10 11 12 12 13 13 14 14 15 16 16 17 17 16 16 17 17 18 17 17 16 16 15 15 15 14 14 16 15 15 15 15 14 14 13 13 13 12
1 2 1 1 0 1 4 3 6 7 6 7 8 9 8 9 10 11 11 11 12 14 16 15 15 15 15 13 11 16 21 22 24 23 23 23 22 21 21 22 22 21 20 19 19 17 15 14 13 13 14 14 14 13 12 11 11 10 10 10 12 13 13 13 15 15 15 16 18 18 18 17 16 16 17 17 17 17 17 16 15 15 15 14 13 14 16 15 14 15 15 14 13 13 13 12 12
2 2 1 1 1 2 4 4 6 7 5 5 7 8 8 8 10 10 10 12 11 12 16 17 16 15 14 13 11 11 17 23 24 23 22 22 22 22 22 21 19 19 19 19 19 18 16 14 14 14 13 14 14 13 11 11 12 11 11 12 13 14 14 14 16 17 16 17 18 19 18 17 17 17 17 17 17 17 17 16 15 14 14 14 14 15 16 15 14 15 15 14 13 12 12 12 13
4 3 2 1 1 2 2 2 5 6 5 6 8 7 5 8 11 10 10 11 10 12 15 17 15 12 13 14 11 12 19 25 23 22 23 22 22 21 21 21 21 19 19 19 19 18 16 14 14 13 13 14 14 13 12 13 13 13 13 13 14 15 16 16 17 18 18 18 19 19 19 18 18 17 17 17 17 17 17 16 14 14 14 15 15 16 15 15 14 14 13 13 13 12 12 14 16
2 2 2 0 2 3 2 2 4 6 6 7 9 6 6 9 9 8 8 8 9 12 11 11 12 12 14 15 17 21 25 25 23 23 23 23 21 21 19 19 22 19 18 19 18 16 14 13 13 13 13 13 15 14 12 14 15 14 14 14 16 16 17 18 17 19 19 19 20 20 19 19 18 17 17 16 16 16 16 16 14 13 14 15 16 16 15 14 13 13 12 13 13 12 13 15 17
1 2 1 1 2 3 3 4 4 5 9 9 9 7 9 9 5 6 7 7 10 12 10 9 12 15 16 18 24 27 27 25 24 24 22 21 19 18 17 16 19 18 17 18 16 15 13 13 13 12 13 14 16 15 12 14 16 16 15 15 18 18 18 19 19 20 20 20 20 19 19 18 17 16 16 16 15 15 15 15 14 13 14 15 16 15 15 14 13 12 12 12 13 13 13 15 16
1 3 1 2 2 4 4 5 4 6 11 10 9 8 10 10 6 6 8 8 10 11 11 13 15 18 21 25 29 27 26 25 24 23 21 19 17 15 14 14 15 15 16 16 15 15 14 13 13 14 14 14 16 15 12 14 18 18 16 16 17 18 18 18 18 19 19 19 18 17 17 16 16 15 15 15 14 14 14 14 13 14 15 16 16 15 15 14 13 12 12 12 13 14 13 13 14
2 2 1 2 2 5 6 5 5 8 13 12 10 9 9 11 10 8 9 11 11 11 13 16 19 21 24 26 27 26 25 24 22 22 19 18 18 16 14 13 15 15 15 14 15 15 13 14 14 15 15 14 15 15 13 14 18 18 17 16 18 19 18 17 16 16 17 17 16 16 15 15 15 14 13 14 14 14 13 13 13 13 15 16 15 15 14 14 13 12 12 11 11 13 12 10 10
1 1 2 1 5 7 6 5 5 9 14 13 12 11 10 11 10 8 10 14 11 11 15 17 20 21 22 22 24 26 24 23 21 20 19 17 17 17 15 14 16 15 14 14 15 15 14 14 14 14 15 14 15 15 13 13 16 17 15 16 19 20 18 16 15 14 14 15 16 16 16 15 14 15 15 14 14 13 13 14 13 13 14 15 15 14 14 14 13 11 10 9 9 9 11 10 8
0 3 1 4 8 7 6 6 5 10 13 12 13 12 12 11 9 10 11 12 9 11 15 17 21 22 22 21 22 23 23 22 20 18 18 18 16 17 16 15 17 16 14 14 15 15 14 14 13 13 15 15 15 15 14 12 13 14 14 16 17 17 17 16 14 13 13 15 16 16 17 14 12 15 15 13 12 11 13 14 13 13 15 15 14 12 12 10 9 8 7 8 9 9 9 9 7
1 1 3 4 6 6 5 5 3 6 9 11 13 12 11 10 9 11 11 9 7 10 16 19 21 22 21 21 20 21 21 20 19 18 17 18 16 17 17 16 18 18 16 15 15 15 15 15 13 13 14 15 16 16 15 13 11 13 15 14 14 14 15 13 12 13 15 17 16 15 15 14 12 13 13 12 14 14 12 11 11 13 13 12 11 8 7 6 5 5 5 6 7 7 5 4 3
1 3 7 3 3 7 6 6 3 2 7 9 11 11 10 10 10 10 9 9 8 10 17 20 20 22 23 21 20 19 19 18 18 18 16 18 17 16 18 17 17 18 17 16 16 16 17 16 13 13 16 16 17 17 18 16 13 14 16 14 13 14 13 12 13 16 18 18 18 16 14 13 13 14 14 14 15 14 10 9 10 11 9 7 7 5 5 5 4 3 3 4 5 4 4 2 3
1 3 9 3 3 7 8 6 3 1 5 8 10 12 11 12 11 9 9 10 10 12 18 20 20 22 23 20 19 18 18 18 19 18 16 17 17 16 17 17 16 17 18 18 17 16 16 17 15 15 17 17 18 18 17 16 16 17 18 15 14 14 14 14 15 16 18 18 18 17 13 13 14 15 15 15 14 12 10 9 9 8 6 5 5 5 5 4 2 1 2 2 2 5 6 4 4
3 5 9 5 3 10 10 5 4 2 3 8 10 12 11 11 10 10 11 12 12 15 19 20 19 20 19 19 18 17 16 18 19 19 17 16 17 17 16 17 16 16 18 18 18 17 15 16 16 17 18 17 18 18 17 16 17 18 18 15 13 14 16 16 14 14 15 14 15 15 14 13 14 14 14 13 13 11 9 7 5 5 4 5 4 3 3 2 1 1 1 3 4 5 6 5 4
5 8 10 8 7 11 8 6 4 1 1 6 11 10 10 10 9 10 11 12 14 16 20 19 19 18 17 17 17 16 15 17 18 18 16 16 17 16 16 17 16 16 18 18 18 19 18 17 16 18 18 18 18 18 19 19 17 18 17 15 13 14 16 15 14 13 13 12 11 12 13 13 11 11 11 11 11 9 7 6 5 4 2 3 2 2 3 2 2 3 3 3 2 4 5 5 5
8 8 11 11 10 8 6 7 4 3 5 4 11 10 7 5 4 8 9 12 16 17 20 19 18 17 16 16 15 15 15 17 18 17 16 16 16 15 15 15 16 17 17 18 18 17 19 19 18 18 17 19 19 18 19 20 18 18 17 15 14 14 14 13 13 12 10 9 9 10 11 11 10 9 9 9 8 8 7 6 6 4 3 2 2 3 3 3 4 4 2 1 2 3 2 4 5
11 10 13 10 9 7 5 6 3 3 4 2 10 11 5 1 4 9 9 13 16 16 18 19 17 16 16 17 15 12 13 16 17 17 16 15 15 15 14 15 16 17 16 17 18 17 18 19 19 18 17 17 19 19 19 19 18 17 17 16 15 14 14 13 13 12 9 8 8 8 8 9 9 9 9 8 7 7 7 6 5 4 3 3 2 4 4 4 4 2 2 1 2 2 1 3 4
8 9 12 9 8 7 4 3 4 2 3 1 7 9 4 3 7 11 10 12 15 14 16 17 16 15 15 15 13 11 13 15 15 15 16 15 15 15 14 15 16 16 16 16 17 18 18 18 18 17 16 16 17 18 18 18 18 17 16 14 13 14 15 14 14 14 12 10 8 7 8 9 9 9 10 8 7 8 8 6 5 5 5 4 3 3 4 5 4 2 1 2 2 0 1 1 1
5 5 8 7 6 3 0 1 1 2 2 0 2 4 5 6 9 10 9 12 15 14 15 15 14 14 14 13 12 11 13 14 14 15 16 15 15 16 15 16 17 16 16 17 17 18 18 17 16 16 16 16 16 17 16 16 17 17 16 14 13 14 14 14 13 13 12 11 10 9 9 10 9 8 8 7 7 8 8 7 6 6 5 4 3 2 3 5 5 4 2 2 3 1 2 2 3
6 6 5 5 3 2 2 3 3 3 1 2 1 2 5 7 10 10 8 12 15 15 15 15 14 13 13 12 12 12 12 13 15 16 16 15 16 16 16 17 18 16 16 17 18 17 17 16 16 16 16 15 15 15 15 15 15 16 16 15 14 14 15 15 14 13 12 11 10 10 9 8 7 6 6 6 6 7 8 7 7 7 5 4 4 3 4 5 4 4 3 2 2 2 3 3 2
7 6 3 4 4 3 3 3 4 3 2 1 0 2 6 8 10 10 9 11 13 14 15 15 14 15 14 12 12 12 12 14 16 17 17 15 16 16 16 17 18 17 16 17 18 17 16 16 16 17 16 16 15 15 14 14 15 15 14 14 14 14 14 15 14 13 13 12 11 9 9 8 7 6 6 5 6 7 8 7 6 6 5 4 4 4 4 4 3 3 3 3 2 2 1 1 2
5 4 3 4 6 5 2 3 5 4 3 3 1 2 5 8 11 11 9 10 12 13 14 15 14 14 14 12 11 12 11 13 15 16 17 16 16 16 16 17 17 17 17 18 17 17 17 16 17 17 17 16 15 15 14 13 14 15 14 14 14 13 13 13 13 13 13 13 11 10 9 8 8 7 5 5 7 8 6 7 7 5 6 5 3 4 3 4 4 2 2 2 3 4 2 3 3
3 1 1 3 6 7 5 3 5 7 7 5 3 2 2 7 12 12 11 11 12 12 13 14 14 13 13 11 11 12 11 11 12 15 17 16 16 17 17 16 16 18 17 17 17 17 17 17 17 17 17 17 16 15 13 13 14 14 14 13 13 13 13 12 12 12 12 11 11 11 9 8 8 7 5 4 6 6 5 7 6 4 6 5 3 4 3 3 5 1 1 2 2 4 4 4 3
4 2 2 2 5 7 7 6 7 11 10 7 6 3 4 8 12 12 11 12 11 11 13 13 13 13 12 12 12 12 11 11 12 15 17 17 17 18 18 17 17 18 18 17 17 16 16 16 17 18 17 16 16 15 14 13 13 12 12 12 12 13 13 11 12 12 11 11 11 11 9 8 7 7 6 4 4 6 7 6 5 4 5 4 2 4 4 3 4 1 0 0 1 2 3 2 0
7 5 6 3 4 5 6 7 10 12 10 9 8 5 7 11 12 12 11 11 10 10 11 10 11 12 11 11 11 12 12 11 13 16 17 17 17 17 19 18 17 18 19 18 18 17 16 17 18 18 17 16 16 15 14 13 12 11 12 12 10 13 14 12 12 12 11 11 10 10 9 8 8 7 6 3 2 5 7 7 5 4 4 4 2 4 5 6 5 3 1 1 2 1 1 1 1
10 6 7 4 3 3 3 5 10 10 7 7 8 6 8 11 11 12 11 10 10 9 11 10 10 11 11 11 12 13 12 11 14 16 16 17 17 17 18 18 17 18 20 19 18 17 17 18 18 18 17 16 15 15 14 13 11 11 12 12 10 12 13 11 11 11 10 10 10 10 9 8 8 7 6 5 4 4 6 7 6 4 3 4 3 4 4 5 4 3 1 2 2 2 1 3 2
10 7 6 4 2 3 5 5 7 6 2 3 6 6 7 9 10 10 10 11 11 8 9 12 13 12 11 11 13 13 11 11 14 15 15 17 18 18 17 17 18 19 20 19 18 18 18 18 18 17 17 16 15 15 14 14 12 11 12 11 11 11 12 12 11 11 11 11 11 10 9 8 8 8 7 6 5 5 5 6 5 3 4 3 1 2 3 3 2 1 0 2 1 3 4 4 3
4 5 5 3 3 5 6 7 7 3 1 2 7 8 6 7 7 6 6 8 9 6 5 7 12 14 11 11 12 12 12 11 13 14 15 17 18 19 18 17 19 19 19 19 19 18 18 18 18 17 17 16 15 14 14 14 12 11 10 10 12 11 11 11 11 12 12 12 11 10 10 9 8 7 7 7 6 5 5 5 5 4 4 3 2 3 3 1 1 1 1 4 4 4 5 3 2
7 5 4 5 7 6 5 8 7 3 1 1 6 6 4 4 2 1 4 3 2 4 2 7 9 12 12 12 12 12 13 13 13 14 15 16 19 18 18 18 19 19 19 19 19 18 19 19 19 18 17 15 15 15 14 13 13 11 9 9 11 11 11 11 11 12 12 12 11 10 10 9 8 8 7 7 6 6 5 5 5 3 3 3 2 1 2 1 2 3 2 4 7 6 4 3 2
8 10 6 8 12 9 6 11 9 3 3 1 4 2 2 4 4 2 4 3 3 2 3 5 9 10 12 11 12 11 13 13 14 15 14 16 18 18 18 18 19 19 18 19 20 19 19 19 19 19 17 16 15 15 14 14 13 11 9 9 9 10 10 10 11 11 10 10 10 9 9 9 9 8 7 7 6 6 5 4 5 4 2 2 2 1 1 1 3 2 2 2 4 6 6 4 3
8 11 10 12 15 10 14 15 9 4 1 2 5 2 2 6 8 7 3 1 2 2 3 6 8 10 11 10 12 12 13 13 13 15 15 15 18 18 18 19 19 19 19 19 20 20 20 20 20 19 18 17 17 16 15 15 14 11 10 10 9 10 9 9 10 10 10 10 10 10 9 9 8 8 7 6 5 6 5 4 4 4 3 2 1 1 1 2 2 3 4 3 3 5 6 6 7
6 6 6 7 13 16 21 18 8 4 2 5 7 4 0 4 7 8 6 4 4 3 6 9 9 11 11 9 11 12 13 13 12 14 15 15 17 17 18 19 19 19 19 19 19 21 22 20 20 20 19 18 18 18 16 16 15 12 11 10 10 9 8 9 10 10 11 11 10 10 10 9 8 7 7 6 5 5 5 5 4 3 3 3 2 1 1 1 2 4 5 3 3 5 7 7 7
3 5 10 5 6 14 20 17 9 5 5 6 10 7 1 3 7 9 9 7 7 7 9 11 10 12 13 11 12 13 13 13 12 13 14 15 17 18 18 19 19 18 19 18 18 21 23 22 21 20 19 19 19 19 17 17 16 14 12 11 11 10 8 9 9 9 11 10 9 11 10 10 9 7 7 7 6 5 5 5 4 2 2 2 2 2 2 0 3 4 4 3 3 4 5 6 6
2 5 7 4 3 8 13 12 8 8 6 5 10 9 2 2 6 9 11 10 10 11 13 13 11 12 13 13 14 14 13 13 13 13 14 15 18 19 18 18 19 19 20 19 19 22 22 22 21 20 20 20 20 20 19 17 16 15 14 12 12 11 10 10 8 8 9 9 9 10 9 10 9 7 7 8 7 6 6 5 5 3 2 2 2 2 1 1 3 3 3 4 4 4 4 3 4
1 6 5 4 5 8 9 8 5 9 6 5 10 12 4 2 6 9 10 12 13 12 11 12 10 9 12 14 15 15 13 12 13 13 14 16 19 20 20 19 18 19 20 19 20 22 21 21 20 20 20 19 21 21 19 18 16 15 14 12 12 12 11 12 10 8 8 9 10 10 9 10 10 8 8 8 7 7 6 5 5 4 3 3 3 2 1 2 2 2 2 3 4 3 3 2 3
1 1 3 5 6 5 4 6 3 5 5 2 8 11 5 2 6 8 9 10 13 12 10 10 10 10 12 13 13 14 14 12 12 13 15 18 19 20 20 19 18 18 19 20 21 21 22 21 20 20 20 19 21 21 20 18 16 16 15 13 13 12 11 13 13 11 9 9 10 10 8 9 9 9 9 9 8 7 6 6 5 5 5 4 3 2 2 2 2 3 3 3 2 2 2 2 2
4 4 5 5 6 5 5 6 3 5 5 3 8 8 4 5 4 7 9 9 12 15 12 12 14 13 12 11 11 13 13 13 13 12 13 16 17 18 19 18 18 18 19 21 22 22 22 21 21 21 20 20 20 20 20 19 17 16 15 14 14 13 12 13 14 13 12 10 10 10 9 9 9 8 9 9 9 8 8 7 6 5 5 4 3 3 3 2 1 4 5 3 2 1 2 0 2
4 5 4 5 6 4 5 5 3 5 2 5 7 8 3 5 3 4 9 10 12 15 13 12 14 15 14 13 14 13 13 14 13 12 13 13 13 16 19 18 17 18 19 22 23 21 21 21 21 21 21 21 21 20 20 19 17 16 16 15 15 14 13 13 14 13 13 12 11 11 11 11 10 8 9 9 8 8 9 8 7 6 6 5 4 5 4 2 2 4 4 2 2 2 1 1 1
6 6 6 6 5 4 5 4 4 6 1 6 7 7 3 3 4 5 7 10 11 15 16 13 12 13 14 14 14 13 13 14 13 12 13 12 13 17 18 18 17 18 20 22 24 23 21 21 22 21 20 22 21 20 20 19 18 17 16 16 16 15 14 14 14 13 13 13 12 12 11 11 11 9 9 9 9 9 10 9 8 7 7 6 6 5 4 4 3 3 3 2 2 2 2 1 1
8 9 8 8 6 4 4 3 4 6 0 7 8 5 1 0 1 2 5 10 10 13 15 15 12 11 12 12 13 13 13 14 12 12 13 13 15 17 18 19 18 18 20 21 24 25 23 22 23 22 21 21 21 20 20 19 18 17 17 17 16 15 15 14 14 13 13 13 12 12 11 10 11 10 10 10 9 9 10 10 9 8 7 7 7 6 5 5 4 3 3 3 2 2 2 2 2
5 8 9 8 7 6 4 2 4 6 3 4 5 2 1 2 3 1 7 8 10 12 14 16 16 15 14 13 11 8 8 11 12 12 12 14 17 18 18 20 19 19 19 20 23 26 24 23 24 23 21 20 20 20 20 19 19 18 17 17 16 16 15 14 13 13 13 13 12 12 12 11 10 11 11 10 9 9 10 10 10 9 9 8 8 7 7 7 6 5 5 4 3 3 4 3 3
2 6 9 8 8 9 6 2 4 7 6 3 5 4 2 1 2 4 8 7 10 13 14 16 16 17 17 14 9 4 3 7 10 11 10 12 17 19 18 20 20 20 19 19 22 25 25 24 23 22 22 20 20 20 19 19 18 18 18 17 17 16 15 14 14 13 12 12 12 12 12 11 10 10 11 10 10 11 11 11 10 10 10 9 9 9 8 8 7 6 6 5 4 5 5 4 3
6 4 4 7 9 10 7 4 4 7 7 2 6 7 6 4 3 5 8 9 11 13 14 15 15 16 17 13 9 6 5 6 8 11 10 10 16 19 19 20 21 21 20 20 21 22 24 24 22 22 22 21 21 20 19 19 18 18 18 18 17 17 16 14 14 13 13 12 12 11 11 11 10 10 11 10 11 12 11 11 10 10 11 10 10 9 9 9 8 7 8 7 6 6 6 5 4
13 8 6 4 7 8 5 4 5 5 5 3 3 6 5 3 3 6 8 10 11 11 12 15 15 16 15 13 10 8 8 8 7 9 10 9 14 19 20 20 21 22 21 20 20 21 21 22 21 21 21 21 21 20 19 19 19 18 17 18 18 17 16 15 14 14 13 13 13 12 12 12 11 12 12 11 12 13 12 12 11 10 11 11 10 10 10 11 9 7 8 7 7 8 7 6 5
14 10 8 7 4 4 5 6 5 5 4 3 2 4 3 2 4 8 8 8 10 11 12 13 14 16 14 13 12 9 9 9 7 7 10 10 13 18 20 21 21 21 21 21 21 21 21 21 21 20 21 21 20 20 19 19 18 17 17 18 18 18 17 16 15 15 15 14 14 13 12 12 12 12 12 11 12 13 12 12 12 11 12 12 11 10 11 11 10 8 9 8 7 9 9 8 7
10 9 7 6 3 3 4 5 7 6 5 4 4 3 4 3 4 7 6 5 5 6 8 10 12 15 15 14 15 12 10 9 6 4 7 12 14 17 20 20 19 20 20 20 21 21 20 21 21 21 21 21 20 20 19 19 19 18 18 18 18 18 17 16 15 15 15 15 14 14 13 13 13 13 13 12 12 12 12 13 12 12 12 12 12 11 11 11 11 10 10 10 9 9 9 9 8
9 9 8 6 5 4 4 5 6 6 5 5 5 2 5 4 3 5 7 4 3 4 5 8 11 16 16 15 16 15 12 9 6 4 5 9 14 18 21 20 19 21 21 19 20 20 20 21 21 21 21 21 21 20 20 20 18 19 19 18 18 18 17 17 16 15 15 15 14 14 14 14 13 13 13 13 13 13 12 13 12 11 11 11 12 13 11 10 11 11 10 10 9 9 9 9 8
Wind_Direction
183 170 182 205 227 232 328 31 350 250 123 271 202 136 109 112 116 114 110 104 97 100 97 89 81 71 72 75 82 69 59 61 61 97 104 127 140 141 133 134 137 133 130 129 126 121 122 122 119 122 119 119 118 118 120 121 127 122 115 113 111 115 119 120 118 116 116 114 114 115 114 112 113 112 112 112 116 120 116 111 110 110 111 111 111 109 105 101 96 95 93 94 98 100 98 96 96
179 186 204 215 239 268 45 72 318 49 214 231 132 112 122 123 120 114 114 116 111 108 100 92 83 83 91 86 85 76 67 71 82 91 110 129 133 132 131 136 136 131 129 128 125 121 123 123 122 125 123 118 112 115 121 129 132 123 118 119 118 119 122 123 127 126 121 118 117 116 116 118 118 117 116 115 119 120 115 112 111 111 112 112 112 110 107 103 100 97 97 97 100 101 99 98 98
199 207 219 180 193 146 89 216 214 77 245 188 116 117 130 121 112 111 116 114 104 103 102 106 94 86 95 86 82 84 85 87 96 101 119 126 124 127 132 135 132 127 125 123 120 119 122 123 127 128 125 117 112 117 122 126 120 114 117 120 122 124 129 127 126 128 126 120 118 120 119 120 121 121 119 116 117 118 115 112 111 111 112 113 111 110 106 102 101 101 99 99 100 102 101 100 100
220 293 343 89 115 180 99 245 234 110 180 177 122 121 123 111 111 114 113 106 104 109 108 105 86 70 88 91 90 90 99 98 103 110 120 121 121 130 132 129 126 119 117 116 115 120 121 123 126 126 123 116 114 116 115 111 105 106 106 109 113 120 130 132 127 126 126 121 119 121 120 119 119 121 120 117 117 116 115 113 113 113 114 113 111 109 107 104 101 102 102 101 101 102 102 101 102
228 352 52 119 23 220 174 254 249 186 195 186 122 120 117 114 118 116 109 105 108 111 110 108 99 94 87 90 100 98 107 106 107 111 113 117 121 129 129 125 120 112 110 110 114 118 119 123 123 123 120 114 112 111 106 102 100 100 102 108 112 118 125 127 126 125 126 124 120 120 119 118 117 121 121 120 120 116 114 115 116 116 117 115 111 109 108 105 101 101 102 101 101 102 102 103 105
207 91 80 151 62 48 258 244 282 224 222 264 124 120 118 119 120 115 111 110 110 111 109 100 97 99 90 87 92 96 110 113 112 113 115 118 120 123 122 119 114 109 109 108 111 115 119 122 121 120 114 110 109 107 104 101 102 104 108 114 117 121 123 123 124 124 124 123 121 121 120 120 121 121 120 122 122 118 116 116 117 118 118 117 113 110 107 105 102 102 102 101 101 102 103 106 108
177 118 73 247 97 52 275 245 299 290 318 289 131 122 122 122 121 118 116 118 118 119 114 105 102 97 91 93 91 97 108 113 113 114 115 118 120 119 117 114 109 107 108 108 110 114 117 118 118 115 109 106 106 108 106 103 105 111 114 115 119 123 126 127 125 122 120 119 119 118 118 123 125 121 121 124 123 121 117 116 118 116 114 113 111 108 107 105 103 104 103 102 102 103 105 109 112
146 123 254 155 106 238 277 296 280 54 310 265 127 119 125 124 123 121 120 124 122 120 116 113 111 98 95 99 97 101 104 107 110 113 116 118 119 117 115 113 109 107 107 108 112 114 113 111 110 107 105 104 103 104 102 101 100 105 111 115 119 119 121 123 123 120 119 120 117 115 118 122 124 121 122 123 123 121 116 115 117 115 113 111 110 108 106 104 103 105 104 104 104 105 107 111 113
86 51 225 114 10 275 291 303 108 80 272 209 118 116 127 125 124 120 121 120 116 118 115 112 107 101 101 99 99 101 103 108 111 114 116 117 117 116 115 113 111 109 108 107 108 110 107 104 102 101 102 100 99 99 97 96 94 96 103 110 116 117 118 120 122 122 121 121 118 118 122 122 122 120 119 120 122 120 114 113 115 116 115 112 111 108 107 105 104 104 104 105 106 107 109 111 113
41 329 283 25 12 322 66 332 101 346 250 142 117 126 132 125 122 120 124 120 119 116 110 107 103 104 105 102 103 108 112 116 116 114 115 115 116 115 113 113 112 111 110 110 108 106 104 103 101 102 103 99 97 98 97 94 94 98 103 112 118 119 120 123 124 122 120 121 121 124 126 121 120 121 119 119 123 120 115 114 114 118 117 113 111 110 111 109 107 107 106 105 106 107 110 112 113
108 316 2 316 101 317 211 119 140 239 172 126 121 132 130 123 125 125 126 119 119 115 113 113 109 109 108 103 104 117 121 121 117 115 117 116 115 113 112 114 113 112 111 111 110 106 105 105 102 102 101 99 98 98 96 93 97 102 109 116 118 120 121 123 124 120 119 121 123 125 122 119 119 122 119 117 121 120 117 117 116 119 120 114 111 112 114 112 111 110 108 106 106 107 110 111 112
187 122 147 273 119 117 200 154 155 165 134 132 132 134 130 129 131 131 128 125 129 126 122 119 116 115 110 109 114 124 124 120 117 117 119 117 114 113 108 108 111 110 110 111 110 109 108 106 105 105 104 102 99 94 89 89 96 105 113 117 116 117 117 121 121 117 119 121 122 121 120 121 122 120 116 114 117 119 118 117 117 120 120 114 112 115 116 116 116 115 113 112 110 111 111 110 112
192 151 184 271 354 147 173 161 151 146 136 137 134 137 140 134 131 132 132 128 127 121 118 118 123 120 112 114 125 128 124 121 120 121 122 118 115 113 107 105 108 109 109 111 112 112 112 111 112 111 107 104 98 92 89 89 93 99 107 112 113 112 114 120 119 117 120 122 123 123 123 123 120 117 116 114 115 117 118 117 120 123 119 113 113 116 119 122 122 120 118 117 117 116 114 113 113
143 126 166 263 7 138 154 147 153 147 142 147 141 145 146 136 135 137 131 125 120 120 124 127 126 116 115 125 130 131 125 126 125 124 123 118 118 117 115 114 113 111 110 112 113 114 116 117 116 111 106 101 97 94 91 91 94 97 101 105 107 109 115 119 118 119 122 124 124 123 121 118 116 116 116 116 116 119 120 121 126 129 123 115 116 119 123 126 124 122 122 122 122 119 116 114 113
179 129 141 220 86 139 160 156 164 144 137 162 149 143 148 140 140 135 125 126 127 131 129 129 129 121 132 138 132 133 130 130 128 126 124 119 120 117 116 120 119 116 112 112 113 114 118 121 117 113 108 101 99 97 94 94 97 100 102 106 107 110 116 117 118 120 122 123 122 120 119 116 114 114 115 117 119 121 123 125 130 131 126 123 124 125 127 127 125 125 126 125 121 118 114 113 115
196 116 131 190 136 162 205 188 184 150 146 166 148 144 154 141 136 128 132 143 131 128 125 129 138 134 141 137 128 133 132 132 131 127 124 121 121 116 118 121 118 116 112 114 115 117 121 120 117 115 111 105 101 96 95 100 100 101 103 108 110 111 114 115 118 119 120 121 120 119 116 115 114 114 114 116 118 122 125 125 127 127 126 129 130 131 132 130 129 129 127 124 120 118 115 116 117
121 69 82 275 174 157 178 176 203 154 146 158 152 163 148 125 118 130 148 150 124 119 120 131 139 133 132 127 128 132 132 132 132 128 125 124 122 118 122 119 113 112 111 115 119 121 121 117 115 115 113 108 102 97 102 106 106 107 105 107 110 111 112 114 118 117 117 117 118 119 116 116 115 114 114 116 119 123 126 125 125 125 125 128 130 134 134 132 131 128 125 121 118 114 112 117 118
89 72 47 272 175 152 188 171 189 149 143 155 161 177 146 127 143 151 146 130 121 124 130 136 130 121 118 123 129 132 132 135 133 130 130 130 125 119 121 118 115 114 112 115 120 122 121 120 119 117 115 109 105 105 110 108 108 113 112 111 113 113 114 115 117 119 118 117 119 119 117 117 115 115 116 118 121 123 126 126 127 124 122 123 126 130 130 131 130 126 123 120 117 111 110 116 115
48 91 180 254 124 155 192 165 192 157 144 155 161 179 150 138 149 152 143 133 140 139 130 125 116 114 120 127 132 132 135 136 134 134 135 134 131 126 125 123 120 117 116 117 121 124 126 126 121 120 118 109 106 108 111 108 110 116 116 117 120 120 120 119 119 121 121 123 126 123 119 121 121 120 120 122 122 122 123 123 125 123 118 119 122 125 127 129 128 127 124 122 121 116 118 126 114
81 237 238 142 113 143 162 148 191 151 143 154 157 170 153 144 148 148 144 140 149 136 122 121 121 126 129 132 134 137 139 136 137 138 136 135 132 128 130 130 125 122 121 121 122 124 127 127 123 123 121 113 110 112 115 113 113 117 115 118 123 124 123 123 125 124 127 133 136 134 131 130 129 127 125 124 123 123 124 123 125 122 118 120 122 124 127 129 130 133 133 132 133 130 138 142 135
166 265 305 138 136 131 138 149 164 137 146 156 151 156 148 149 151 146 147 141 141 130 128 131 132 133 133 136 139 142 140 138 141 140 138 136 133 132 133 132 127 126 124 122 124 124 126 128 126 128 125 121 121 120 122 122 122 124 123 122 123 123 123 125 125 125 133 136 136 133 129 128 130 131 127 126 127 126 124 122 121 121 121 122 122 124 128 129 131 139 152 151 146 147 147 135 144
255 21 73 156 154 124 142 145 121 137 152 152 147 147 143 150 148 144 146 139 137 133 133 134 133 134 136 139 142 144 141 141 142 141 142 137 137 136 131 127 125 127 127 126 126 126 130 129 129 134 130 129 128 126 128 129 131 128 126 127 128 127 125 126 124 129 135 135 134 129 124 127 130 131 130 134 133 127 124 121 125 128 124 121 123 130 141 146 147 157 169 165 159 151 132 112 151
309 58 92 153 176 128 132 124 110 181 153 147 150 146 143 146 140 141 140 130 134 132 130 132 133 136 138 140 144 146 143 143 141 143 145 138 139 136 130 130 128 129 130 132 131 133 137 134 137 137 130 131 129 130 132 131 135 133 130 133 137 137 131 127 130 136 138 137 137 131 129 133 132 131 130 133 130 126 133 137 141 140 135 136 137 161 181 165 150 144 171 185 180 154 116 127 173
31 75 102 136 237 113 94 102 119 124 147 164 156 143 144 143 139 144 137 130 140 136 129 131 134 137 140 143 146 146 143 143 141 143 145 138 138 136 132 130 129 131 132 134 135 137 142 139 141 135 129 131 126 130 133 130 135 136 134 136 139 139 132 130 131 134 136 136 135 133 139 142 139 137 134 132 129 129 139 143 148 146 150 166 159 177 183 164 169 226 265 241 158 151 138 140 159
82 102 116 163 197 101 94 106 113 87 174 177 145 134 137 133 134 139 136 138 146 140 131 133 137 140 143 144 145 145 144 142 140 143 143 139 136 134 132 128 131 136 135 137 137 140 146 141 139 135 131 127 123 129 133 132 136 138 137 139 145 141 132 132 130 128 131 133 134 132 137 139 136 136 134 135 131 129 138 146 158 151 150 162 154 156 142 128 236 195 143 103 110 145 145 143 168
99 125 127 138 110 101 118 119 113 110 114 148 134 127 120 117 128 131 139 149 146 139 134 137 141 142 144 144 143 145 143 141 142 143 141 138 137 135 133 133 137 140 139 140 140 144 148 146 141 139 137 128 127 134 137 139 141 142 142 142 149 145 136 137 137 136 135 132 136 135 132 131 131 133 131 131 130 130 142 150 153 148 123 134 117 79 108 111 114 126 106 81 120 149 147 160 178
105 121 110 104 101 107 128 108 116 122 58 105 137 122 97 88 133 135 147 153 145 141 138 141 143 142 144 141 141 146 144 144 144 143 142 140 139 139 139 139 139 139 141 139 139 144 145 147 144 143 144 136 136 137 137 143 140 140 144 144 147 143 137 139 142 147 138 122 127 137 135 128 126 137 135 127 133 139 146 139 132 135 83 78 97 86 104 91 91 109 72 1 172 129 146 191 179
105 104 99 95 101 90 84 88 80 104 64 64 126 114 87 55 148 141 156 155 145 144 141 143 145 142 143 139 141 148 144 143 144 143 144 144 141 141 143 142 138 138 141 136 138 144 143 144 144 143 143 137 137 135 135 141 141 140 145 144 143 142 142 142 144 150 147 133 134 145 150 143 139 150 146 137 145 150 150 138 134 151 100 70 100 108 105 92 88 74 48 104 136 113 271 244 195
106 109 108 105 103 78 53 65 20 56 108 142 126 118 106 122 140 145 159 151 143 146 145 146 145 142 141 139 143 147 142 142 146 147 144 145 144 142 143 141 139 139 138 137 143 146 142 142 142 140 138 135 135 133 133 139 142 142 142 141 137 138 143 143 143 145 147 146 143 144 147 151 150 148 145 148 150 144 144 139 137 141 120 103 99 102 101 103 110 82 57 58 56 155 238 305 251
123 124 113 110 105 82 16 207 16 71 99 285 151 134 125 129 145 157 162 150 149 153 151 148 144 144 142 141 148 146 143 147 153 149 144 148 148 143 146 144 140 138 137 143 148 144 141 142 142 139 138 138 134 132 135 137 138 138 140 142 140 140 144 145 144 141 143 141 133 130 131 137 140 136 139 143 138 134 136 134 126 116 112 110 90 70 76 80 78 59 37 30 50 12 322 320 299
150 129 117 135 116 131 210 208 158 120 78 349 15 132 145 147 157 168 165 156 161 160 154 152 147 147 144 145 151 145 147 157 156 147 145 153 149 143 147 142 136 138 143 148 147 141 142 145 142 140 140 138 135 134 137 135 134 136 139 141 143 144 144 145 145 143 143 141 136 135 135 138 140 143 148 136 124 129 133 130 128 118 103 102 97 85 78 75 64 44 27 11 41 15 330 312 312
159 145 148 171 134 151 221 234 190 160 143 173 341 134 151 164 169 171 167 165 171 166 158 156 152 149 147 151 153 147 154 161 155 148 150 154 147 144 147 141 138 144 148 146 143 143 145 145 142 142 141 138 136 136 137 135 135 137 138 137 140 143 143 145 147 146 146 145 144 144 143 144 145 151 152 134 122 127 132 130 128 121 100 101 112 95 87 90 79 46 28 11 13 32 342 268 286
172 183 173 162 139 151 210 232 211 196 163 177 234 114 149 163 169 173 172 172 179 174 163 157 155 152 150 157 156 150 157 161 154 150 152 152 146 145 146 144 142 144 145 142 143 146 144 144 145 144 142 140 138 137 137 135 134 137 139 139 142 144 144 146 147 148 150 149 146 146 148 146 144 148 142 127 127 127 137 139 136 132 118 124 123 92 90 95 86 45 24 27 0 27 16 281 282
156 230 102 154 150 157 170 185 219 205 182 174 120 89 204 162 161 176 179 180 187 181 168 161 159 157 155 161 159 153 159 161 153 150 153 152 148 147 144 140 138 139 143 143 144 146 145 147 148 144 142 141 140 139 137 135 137 140 143 144 145 147 149 149 149 149 147 146 145 146 146 142 143 150 140 116 120 126 136 138 138 138 128 142 141 109 112 93 91 104 68 68 344 1 348 320 326
146 199 120 158 177 176 174 169 203 195 186 177 144 154 211 170 162 176 183 188 195 186 172 165 162 161 160 164 159 153 161 162 153 154 156 152 150 148 141 141 143 143 146 145 143 145 146 147 144 142 143 143 142 142 139 140 144 146 146 148 149 151 151 144 148 154 148 143 146 146 143 144 149 153 143 111 102 127 131 130 143 152 136 152 151 118 129 116 107 131 117 197 294 314 311 341 337
150 176 136 166 212 188 170 171 185 182 183 180 167 180 184 173 170 173 182 190 196 192 180 171 165 163 166 170 160 156 166 162 156 159 157 152 152 149 143 148 151 145 143 143 143 145 146 144 142 144 147 145 145 145 144 147 152 152 150 153 153 152 149 141 148 157 151 142 144 147 149 153 154 150 146 131 109 129 128 133 160 165 138 140 123 113 134 139 140 144 151 300 352 1 240 38 277
129 129 129 158 214 160 122 163 173 169 185 185 174 187 177 172 173 171 178 186 190 195 189 181 171 168 174 174 161 161 168 161 159 164 160 154 152 151 149 151 149 141 141 144 146 148 148 148 148 149 149 149 151 151 152 154 157 157 156 159 157 151 149 147 153 156 150 151 155 154 154 157 153 151 157 154 135 122 124 143 169 165 128 130 104 96 127 137 145 146 136 312 349 11 69 62 358
139 149 134 130 167 122 89 113 144 150 189 185 165 182 184 178 176 172 177 184 190 197 200 191 175 172 181 175 163 164 166 161 161 165 164 158 154 156 154 153 150 144 145 149 152 152 150 152 153 153 153 156 158 157 158 160 160 162 163 165 160 153 151 153 160 158 152 160 167 158 153 160 158 155 159 155 144 136 136 148 169 155 123 131 129 112 129 124 120 139 10 341 322 319 349 38 54
198 177 140 141 135 120 108 104 110 131 192 169 173 181 189 183 173 182 192 188 188 184 217 226 187 174 182 177 165 165 167 165 165 166 169 164 158 159 158 156 154 150 152 153 154 155 152 154 156 155 157 160 162 162 162 161 163 168 167 162 158 155 158 162 165 162 153 155 163 162 162 166 161 157 157 150 147 150 150 153 167 164 133 139 180 143 122 112 73 54 32 13 7 345 339 0 62
260 233 160 160 159 161 144 118 121 146 109 191 201 182 169 173 137 289 268 234 201 124 89 287 234 183 181 182 169 169 172 168 168 170 172 168 162 162 161 159 157 156 158 154 153 156 154 157 158 159 162 162 162 163 163 162 162 168 166 157 158 156 159 163 159 158 156 155 160 165 169 168 161 161 164 160 158 157 158 158 148 147 148 144 153 103 82 134 98 61 58 21 15 24 16 351 24
249 244 227 160 167 183 133 127 141 131 55 327 218 161 149 201 178 220 277 295 320 47 120 275 258 195 184 186 172 174 179 171 172 172 171 171 166 164 163 162 161 160 163 158 157 158 156 159 161 161 163 161 161 162 162 162 159 159 153 145 151 149 150 156 155 156 158 157 162 166 168 170 169 167 169 167 161 156 160 157 129 131 181 178 170 231 313 117 113 86 76 46 30 36 26 1 6
245 248 234 173 168 155 121 135 145 106 40 205 192 192 182 197 191 192 208 218 271 306 203 240 252 205 190 187 176 181 184 175 177 173 171 174 167 164 167 166 166 165 167 166 161 158 158 160 161 163 164 160 161 163 164 165 162 158 149 143 146 144 147 157 162 165 162 161 170 171 169 175 176 171 170 168 162 163 161 153 148 160 182 190 236 276 27 78 105 102 90 63 48 44 26 17 23
248 289 286 191 168 143 136 151 151 122 176 172 188 230 218 177 203 197 176 186 215 244 226 221 224 205 192 189 181 185 184 175 180 177 172 174 165 166 172 171 172 169 167 170 163 157 157 160 162 164 164 162 162 163 166 167 166 164 157 156 158 154 159 167 172 175 170 172 177 173 172 179 180 173 172 173 169 168 160 155 172 183 183 192 225 274 1 92 115 96 93 74 59 53 26 18 19
223 0 335 305 175 150 149 160 161 148 148 154 188 220 265 197 209 195 176 181 201 213 220 212 208 200 191 193 188 185 187 176 178 180 173 171 166 171 178 175 177 172 166 171 163 154 156 160 163 165 164 164 164 165 166 168 168 168 167 166 166 169 173 172 173 173 168 171 172 168 172 177 180 180 177 179 177 172 169 167 174 189 193 178 187 233 302 33 115 100 102 100 91 79 40 19 16
265 0 325 304 224 191 174 172 166 149 150 170 186 191 231 211 179 179 178 184 196 205 211 205 203 200 191 197 193 185 189 182 177 179 176 173 170 175 181 178 180 173 169 172 160 152 156 160 163 165 165 165 167 167 167 169 171 172 177 174 172 178 177 169 174 171 161 161 159 164 174 175 179 189 183 182 185 183 179 176 177 188 189 155 191 221 223 167 138 118 122 116 100 87 66 27 10
354 4 316 286 267 231 201 202 175 146 178 219 187 183 202 187 162 170 180 192 198 197 206 204 203 208 197 198 197 186 186 186 181 179 179 178 176 178 181 181 182 175 170 166 156 152 156 161 165 166 167 166 168 169 167 170 173 175 182 180 177 183 174 165 173 173 164 163 161 167 179 177 179 190 192 188 191 191 188 187 182 189 200 180 195 223 155 130 116 120 139 108 98 94 91 73 9
205 346 264 267 271 260 245 246 207 170 219 235 163 179 219 240 168 173 190 200 193 182 193 200 197 209 202 196 202 192 183 185 183 181 182 180 180 181 180 181 181 176 170 160 154 157 158 163 168 166 169 168 168 171 170 171 174 177 183 182 181 184 173 167 175 175 172 173 172 175 182 182 181 189 196 193 192 196 196 198 191 191 208 191 173 224 198 149 115 149 150 104 100 119 100 69 2
251 245 246 251 231 228 251 241 220 238 252 70 114 150 224 258 182 177 200 198 184 178 184 193 191 197 193 192 210 200 184 186 185 181 183 181 180 181 180 181 180 176 170 158 156 162 161 164 169 167 170 171 169 173 173 174 176 178 183 182 182 184 176 173 176 176 178 181 185 186 185 189 192 197 198 191 194 203 199 200 203 195 194 180 172 201 191 171 177 158 139 119 136 113 85 36 320
235 245 246 255 228 209 239 229 224 255 253 79 114 136 173 267 277 234 211 191 185 182 180 190 191 190 187 192 205 201 188 188 186 182 183 181 178 179 179 180 179 175 170 157 152 159 161 165 170 169 171 172 172 174 175 176 178 180 184 183 183 183 180 179 177 177 182 186 192 190 184 191 199 201 197 191 195 204 199 197 204 200 185 183 202 206 179 176 206 158 131 136 171 168 180 214 287
199 232 228 242 235 208 240 251 265 267 139 111 154 163 180 264 289 267 205 178 185 183 179 185 192 193 191 192 199 199 193 189 188 185 182 181 177 178 177 176 179 177 172 163 156 159 163 167 171 172 172 173 174 176 177 178 180 181 184 184 184 183 182 182 180 181 184 187 193 194 190 192 198 200 200 201 201 199 196 194 198 203 194 193 210 212 190 188 202 180 158 178 204 211 184 187 283
197 217 224 240 252 242 245 234 255 274 144 134 164 184 241 206 344 277 160 160 178 181 179 179 187 197 194 194 199 200 195 190 190 186 181 180 178 179 175 173 179 177 173 172 163 160 164 169 172 174 173 174 177 178 179 179 181 183 184 184 184 184 184 185 185 185 185 185 191 195 196 197 200 203 202 204 207 200 195 193 192 201 205 204 205 200 194 195 197 204 211 201 207 229 207 222 245
201 195 213 234 253 262 269 236 244 273 278 159 163 177 284 325 340 93 139 158 175 174 179 181 185 193 193 195 198 201 199 193 190 185 183 179 177 182 177 173 179 175 174 177 164 158 165 169 172 175 175 176 178 180 181 181 182 183 185 186 187 187 188 188 190 190 188 189 192 194 198 201 203 204 200 199 200 196 194 192 188 196 204 203 202 195 194 200 194 197 221 220 203 228 236 224 221
237 194 208 218 240 258 268 251 241 255 258 206 142 140 180 229 286 177 157 168 178 176 181 184 186 190 192 193 190 192 216 209 194 182 184 178 174 183 182 174 179 177 178 179 164 159 165 167 171 176 177 178 180 181 182 182 183 184 186 189 190 191 192 192 193 194 193 193 195 195 197 201 201 200 197 196 195 193 195 195 191 199 202 197 202 201 198 208 208 199 211 215 210 229 236 219 221
256 243 213 196 222 254 274 269 239 234 249 235 139 155 179 177 172 176 170 172 179 181 180 181 185 189 192 191 184 188 206 226 211 182 181 177 171 181 183 177 180 181 182 180 168 164 165 165 173 178 178 181 182 182 184 183 183 185 187 190 192 194 194 197 197 196 196 194 194 195 196 198 198 195 196 198 196 195 199 199 197 201 202 198 203 204 198 211 216 207 212 216 217 229 232 226 233
247 278 307 258 216 227 243 262 275 258 257 270 157 169 185 166 144 170 182 182 183 184 177 178 184 187 191 188 180 186 201 225 231 188 180 178 175 181 181 179 182 181 182 180 173 171 169 170 177 179 180 184 183 184 185 185 185 186 188 191 194 195 196 200 200 197 200 199 198 199 198 201 203 201 206 207 200 197 199 201 201 204 205 202 206 206 203 213 216 208 219 226 224 232 233 232 238
242 262 283 284 253 229 221 213 229 255 264 272 233 189 147 111 168 177 182 186 182 182 181 182 184 186 189 187 179 183 196 215 236 201 179 176 180 180 175 178 182 178 178 180 176 178 177 176 180 181 183 185 185 187 186 185 189 190 190 192 194 198 199 201 202 201 204 205 204 203 201 203 203 203 208 204 195 196 197 199 202 205 206 204 207 210 205 210 215 211 219 225 227 238 237 232 237
221 238 245 255 259 290 290 235 212 225 240 258 259 217 121 123 194 165 143 159 161 159 177 180 180 186 190 186 183 185 188 198 221 230 192 174 177 180 174 177 181 174 176 179 178 183 182 178 182 184 184 185 187 190 187 187 191 191 191 193 195 199 200 201 204 203 205 208 207 205 206 207 203 201 203 199 196 201 202 202 205 207 209 208 208 211 209 208 212 217 226 231 233 241 239 233 239
204 217 228 243 244 245 260 252 239 236 227 232 253 236 111 122 185 137 129 159 155 130 181 197 186 187 189 184 184 184 179 180 185 218 224 181 177 179 175 177 180 175 177 176 176 186 186 181 184 186 188 189 189 189 187 187 192 192 193 194 195 198 201 202 205 204 205 209 207 206 209 210 207 205 204 202 202 207 206 205 209 208 207 210 209 210 213 211 210 216 225 231 234 238 237 237 243
Height
772 774 774 775 774 777 781 783 801 802 801 812 796 789 784 770 771 774 776 773 773 768 759 759 757 756 764 773 776 775 774 780 784 795 815 810 804 810 809 811 813 813 816 817 818 819 819 820 820 820 821 822 823 823 823 823 823 824 825 826 826 827 827 828 828 829 829 829 831 831 831 832 833 834 834 834 834 835 836 837 837 838 840 841 841 841 842 842 842 842 843 843 844 844 845 845 846
772 774 774 776 775 781 786 785 808 810 808 815 791 782 779 767 773 778 778 775 772 765 758 760 760 760 762 766 769 776 781 778 776 785 797 798 804 809 808 811 812 813 816 817 818 819 820 820 821 821 822 823 824 824 824 824 825 826 826 827 827 828 828 829 829 830 830 831 832 831 832 833 834 834 834 835 835 836 836 838 838 839 840 842 842 842 843 843 843 844 844 844 845 846 846 846 847
773 775 774 778 777 781 787 791 809 814 815 813 788 775 771 772 777 776 772 767 764 759 761 762 763 764 766 774 776 783 790 781 778 785 792 797 802 807 809 810 811 813 815 817 818 819 819 820 821 821 822 824 824 824 824 825 826 827 828 828 829 829 830 830 831 831 831 832 832 833 833 834 834 834 835 836 836 837 837 838 839 840 841 843 843 843 844 844 844 845 845 846 846 847 847 848 848
773 776 776 778 781 784 792 801 804 809 816 804 788 777 769 776 775 771 767 762 760 760 765 765 770 766 768 784 781 784 791 785 783 786 791 796 801 806 808 809 811 813 814 817 818 818 819 820 821 822 823 824 824 824 825 826 828 828 828 829 829 830 830 831 831 832 832 833 833 834 834 835 835 836 837 837 837 838 839 839 840 841 842 843 844 844 844 845 846 846 847 847 848 848 848 849 849
774 777 777 778 787 790 795 803 800 806 811 792 786 780 770 773 771 770 765 762 761 762 766 767 774 768 766 778 778 787 790 786 786 785 790 796 801 805 807 809 811 813 815 817 817 818 819 820 822 823 824 824 825 825 826 827 828 828 829 829 830 830 830 831 831 832 833 834 834 835 836 836 837 838 838 838 838 839 840 840 841 842 843 844 844 845 845 846 846 847 848 848 849 849 850 850 850
774 777 777 777 784 787 796 806 803 803 799 785 782 777 770 770 769 769 766 764 762 762 765 767 772 771 774 774 773 783 784 786 788 787 791 796 801 804 807 809 811 814 816 817 818 819 820 821 822 824 824 825 826 826 827 828 828 829 829 829 830 830 830 831 832 833 834 835 835 836 837 837 837 838 839 839 839 840 841 841 842 843 843 844 845 845 846 847 847 848 849 849 850 850 851 851 851
773 779 780 782 786 789 801 807 805 802 793 784 777 772 771 769 768 769 770 770 768 764 765 768 768 774 784 779 779 782 779 784 785 789 793 797 802 803 807 809 811 814 816 818 819 819 821 822 823 824 825 826 826 827 828 828 829 829 830 830 830 831 831 832 833 834 834 835 836 838 838 838 837 838 840 840 840 841 841 842 843 844 845 845 846 846 846 847 848 849 850 850 851 851 852 852 852
772 780 782 788 796 797 804 805 803 802 793 780 769 768 769 767 767 770 773 774 773 769 767 768 766 779 788 781 789 786 780 786 786 792 795 798 802 804 807 809 812 814 817 818 818 820 821 823 824 825 825 827 827 828 829 829 829 829 830 830 831 832 833 834 834 835 836 836 837 838 840 839 838 839 841 842 842 842 843 844 844 845 846 847 847 847 848 849 850 851 851 851 852 852 852 853 853
772 780 783 791 801 801 804 806 802 799 792 778 768 769 767 765 768 771 775 774 772 770 769 768 768 784 790 786 794 788 784 790 791 795 797 800 802 804 808 809 813 815 817 819 819 821 822 824 824 825 826 827 828 829 829 829 830 830 831 831 832 833 834 835 835 836 836 837 837 838 839 841 841 840 843 843 843 843 844 845 845 846 847 848 848 849 849 850 851 852 852 852 853 853 853 854 854
776 782 787 795 803 806 808 808 802 800 792 775 770 770 767 766 768 772 776 776 772 771 770 767 773 784 790 793 796 790 789 792 792 797 798 801 803 805 808 810 813 815 818 820 821 821 823 825 825 826 827 827 829 829 830 830 831 832 832 832 833 834 834 835 835 836 837 838 838 839 840 842 842 842 845 845 844 844 845 846 846 847 848 849 849 850 850 851 852 853 853 853 854 854 854 854 854
784 786 788 799 807 812 812 809 804 800 788 774 773 769 766 766 770 774 775 776 772 772 772 770 782 786 789 796 796 791 791 793 794 798 800 802 804 806 808 811 813 815 819 820 822 823 824 825 826 827 827 829 829 830 831 831 832 833 833 833 834 835 835 835 836 838 838 839 839 839 840 842 844 844 845 845 845 845 846 847 847 848 849 850 850 851 851 852 853 853 854 854 854 855 855 855 855
787 792 791 804 808 809 807 807 804 798 786 779 779 770 765 767 773 778 777 778 772 773 773 773 782 782 792 800 795 791 790 795 796 798 802 803 805 808 810 811 814 816 819 821 823 824 825 826 826 828 829 830 830 831 831 832 834 834 835 834 834 836 837 837 837 839 840 841 841 841 842 843 845 845 845 845 845 846 847 848 849 850 850 851 851 852 852 852 853 853 854 854 855 855 855 856 856
783 791 794 804 800 802 805 804 800 795 792 785 780 770 765 770 776 777 777 777 773 776 775 771 775 778 793 798 791 790 792 796 797 800 802 803 807 809 811 812 815 818 820 822 823 824 826 826 827 828 829 831 831 832 833 834 835 835 835 835 836 837 838 838 838 839 841 842 842 843 844 845 845 845 845 845 846 847 847 849 849 850 851 852 852 852 853 853 854 854 855 855 855 856 856 856 857
778 786 793 802 797 800 804 804 797 795 799 786 777 772 768 773 774 772 774 780 778 775 770 764 769 781 794 796 795 794 793 797 798 801 802 804 807 809 812 814 817 819 821 823 824 826 826 827 827 829 830 832 833 833 834 835 835 836 836 836 837 839 839 839 838 840 842 842 842 843 844 845 845 846 846 846 847 848 848 849 850 851 851 852 853 853 854 854 855 855 856 856 856 857 857 857 858
772 780 790 801 802 804 803 802 797 799 802 785 777 776 775 772 769 772 774 780 778 763 762 763 767 784 794 795 799 794 792 797 798 801 802 805 807 810 813 814 818 819 822 824 825 826 827 828 828 830 832 833 835 835 835 835 836 837 836 837 838 840 840 840 840 841 843 843 843 844 845 845 846 847 847 848 848 849 849 850 851 852 852 853 854 854 854 855 856 857 857 857 857 858 858 858 859
763 775 788 801 804 808 804 799 797 801 800 785 778 778 782 775 767 774 770 769 772 760 763 770 767 778 787 787 791 789 792 797 799 801 802 806 808 811 814 814 818 820 823 825 826 827 828 829 829 831 833 834 837 837 836 836 838 838 837 838 839 841 841 841 842 842 843 844 844 845 846 846 847 848 848 849 850 850 850 851 852 852 853 853 854 855 856 856 857 858 858 858 858 859 859 860 860
759 776 792 801 803 806 802 798 798 796 792 785 780 779 785 784 773 771 763 762 770 768 768 770 766 770 777 781 785 787 792 797 799 802 803 807 809 811 814 815 818 821 824 826 827 828 828 830 830 832 833 836 839 839 838 837 840 839 838 839 840 842 842 843 843 843 844 844 846 846 847 848 848 849 849 850 851 852 852 852 853 853 854 855 855 856 857 858 858 859 859 859 860 860 860 861 860
763 784 799 801 798 800 794 791 790 784 787 787 782 780 783 788 782 771 768 772 773 773 772 768 768 769 774 781 785 789 793 797 799 802 804 807 810 812 814 816 818 821 824 826 828 829 829 830 831 833 835 838 840 839 838 839 841 840 840 841 841 842 843 844 844 845 846 846 847 848 848 849 849 850 850 851 852 852 853 853 854 854 855 856 857 857 858 859 859 860 860 861 861 861 861 862 862
770 785 798 798 790 790 783 782 783 779 784 785 782 781 781 784 780 773 778 784 778 778 776 772 776 778 780 783 787 791 793 797 800 802 804 806 809 813 815 816 819 821 824 827 828 829 830 831 832 833 836 838 840 840 838 839 842 842 842 842 842 843 844 845 846 846 847 847 848 848 849 850 850 851 851 852 852 853 854 854 855 856 856 857 857 858 859 860 860 861 861 862 862 862 862 862 862
770 778 791 790 782 784 778 779 781 775 777 782 784 781 780 780 774 774 782 786 781 781 781 780 787 787 786 786 788 792 793 797 801 802 804 805 808 811 815 816 819 822 824 826 828 830 831 832 833 834 836 839 841 841 840 840 842 844 844 844 844 844 845 846 847 847 847 848 848 849 850 850 851 851 852 853 853 854 855 856 857 857 857 858 859 859 860 861 861 862 862 862 863 863 863 862 862
769 774 785 782 777 783 779 778 778 772 773 778 780 780 782 777 771 776 781 788 788 782 779 780 785 786 787 788 788 791 793 797 800 802 804 805 808 810 813 816 819 822 824 827 829 831 832 833 834 835 837 839 842 843 843 841 842 845 845 845 845 845 846 847 847 847 848 848 849 850 850 851 852 852 853 854 854 855 856 856 857 858 859 859 860 860 861 862 862 862 863 863 863 863 863 862 862
769 773 780 779 775 782 780 776 777 774 773 775 778 781 781 775 774 777 780 790 789 777 773 775 779 782 785 787 789 790 793 796 799 802 804 805 807 809 812 815 819 823 825 827 829 832 833 834 835 836 838 840 842 844 845 843 842 845 846 846 846 847 847 847 848 848 848 849 850 851 851 852 853 853 854 855 855 856 857 858 859 860 860 860 861 862 862 863 863 863 863 863 863 863 863 862 862
773 778 778 780 776 778 778 776 780 777 776 780 779 778 775 778 782 778 779 785 779 769 768 772 776 779 783 785 788 791 792 795 798 802 803 804 807 808 811 815 819 822 825 828 829 832 833 834 836 837 839 840 842 844 845 844 844 844 846 847 847 847 847 848 848 849 849 850 851 852 853 853 854 855 855 856 856 857 859 859 860 861 861 862 862 863 863 863 863 863 863 863 863 863 863 863 863
772 782 781 782 779 778 779 780 783 781 782 780 774 774 777 783 784 778 780 779 771 767 766 771 776 778 782 785 788 790 792 794 797 802 803 804 807 809 811 815 818 822 825 828 830 831 833 834 836 838 839 840 841 843 845 845 845 845 845 847 848 847 847 848 848 849 850 851 852 853 854 855 855 856 856 857 858 858 860 860 861 862 862 863 863 864 864 864 864 863 863 862 862 863 864 865 864
772 784 784 783 785 784 783 782 782 782 783 776 773 780 781 779 779 780 781 776 770 767 767 772 776 779 783 785 788 789 791 794 797 801 803 805 807 809 812 815 819 822 825 828 830 832 832 834 837 839 840 840 841 843 845 845 846 846 845 846 847 848 848 848 849 850 851 852 852 853 854 855 855 856 857 857 858 859 861 861 862 862 862 863 864 864 864 864 864 864 863 863 863 864 865 865 865
773 778 782 783 788 788 786 786 785 783 780 776 781 787 783 775 777 784 781 773 770 767 770 774 777 782 784 785 788 789 791 794 797 801 803 805 807 810 812 815 818 821 824 827 830 832 833 835 837 839 840 841 842 843 844 845 846 847 846 846 847 848 848 849 850 851 852 852 853 853 854 854 855 856 857 858 859 860 861 862 862 863 863 863 864 864 864 864 864 864 864 863 864 865 865 865 865
771 774 779 782 787 788 787 789 787 783 781 780 786 792 786 777 782 792 782 769 769 770 774 776 778 784 784 785 787 788 791 794 797 800 803 805 807 810 812 815 817 820 823 825 829 832 834 836 837 839 841 842 843 844 844 845 847 847 848 848 848 848 849 849 850 852 853 853 853 854 855 855 856 857 858 859 859 861 862 862 863 863 863 864 864 865 865 864 864 864 864 865 865 865 865 865 865
771 776 784 785 785 788 788 789 787 783 786 783 783 792 790 783 787 792 780 769 770 773 777 777 780 784 784 786 788 789 791 794 797 799 802 805 807 810 812 814 817 820 822 825 828 831 833 835 837 838 840 842 843 845 845 846 847 847 848 849 850 850 850 850 851 853 853 854 854 855 855 856 857 858 859 860 861 862 863 863 863 864 864 864 865 865 865 865 864 865 865 866 866 865 865 865 865
775 779 789 794 789 794 793 790 789 787 791 784 782 797 801 795 793 786 776 771 772 776 780 779 781 783 784 787 789 790 791 794 797 799 802 804 807 810 812 815 817 820 822 825 828 829 832 834 836 838 839 842 843 845 846 847 848 848 848 849 850 850 851 852 853 854 854 855 855 855 856 857 858 860 860 862 862 863 863 863 864 864 865 865 865 865 865 866 866 866 866 867 867 866 865 865 865
784 783 789 799 801 805 799 793 792 791 792 784 788 811 814 801 793 784 776 774 777 781 782 781 782 783 786 788 790 791 792 795 797 798 802 804 807 809 812 814 817 820 823 825 827 828 832 834 836 838 839 841 842 845 846 847 848 849 850 850 850 850 851 853 854 855 855 855 856 856 857 858 859 860 861 862 863 863 863 863 864 865 865 866 866 866 866 867 866 866 867 868 868 868 867 866 865
784 787 791 800 812 814 801 796 796 797 796 785 793 815 816 804 794 785 778 776 780 784 784 782 783 784 787 789 790 792 793 795 796 798 802 804 806 809 811 814 816 820 823 825 827 829 831 833 835 837 839 841 842 844 845 847 848 849 851 851 851 852 852 854 855 855 856 856 856 857 857 858 859 860 861 862 863 864 864 864 865 865 866 867 867 867 867 867 867 867 868 869 869 869 868 867 866
779 790 803 800 810 818 803 796 796 800 798 789 797 814 813 805 795 786 780 779 781 784 784 783 784 785 788 790 790 793 793 793 795 798 801 803 805 808 811 814 817 820 822 824 826 829 831 833 835 837 839 841 842 844 845 846 848 849 851 851 852 853 853 854 855 856 856 857 857 858 858 859 860 861 862 863 864 864 864 865 866 867 867 868 868 868 868 868 868 869 870 870 870 869 868 868 867
779 785 805 801 806 820 811 799 793 795 799 796 802 812 811 803 795 787 782 782 784 785 785 784 785 786 788 790 790 792 794 793 794 797 800 802 805 808 811 814 817 819 821 824 826 829 831 833 835 836 839 841 842 844 845 846 848 849 850 851 852 853 853 854 855 856 856 857 858 859 859 860 861 861 862 863 864 865 865 866 867 868 869 869 869 870 869 869 869 870 870 870 870 868 868 868 868
791 789 799 798 799 811 814 808 796 792 799 802 805 811 810 801 794 790 786 784 786 786 786 785 786 787 788 789 790 792 794 795 795 796 799 802 804 808 811 814 816 819 822 824 826 829 830 833 835 836 838 840 842 844 845 847 848 849 850 851 852 852 853 854 855 856 856 857 858 859 859 860 861 862 863 864 864 865 865 866 867 868 869 870 871 871 871 871 870 871 871 870 869 868 867 868 869
799 800 800 802 798 800 807 807 797 793 799 803 809 815 812 802 795 794 789 786 788 787 785 785 786 787 788 789 790 793 795 795 795 796 799 801 804 808 811 814 817 819 822 824 826 829 830 833 834 836 839 840 842 844 845 847 847 849 850 850 851 852 853 854 855 855 856 857 858 859 860 860 862 862 863 864 865 865 865 866 867 868 870 870 871 872 872 871 870 871 871 870 869 867 866 866 868
781 786 795 806 800 794 797 797 790 789 800 805 809 815 811 804 799 796 792 788 790 788 785 786 787 788 789 789 791 793 795 795 794 795 798 801 804 807 810 814 816 818 821 824 826 828 830 832 834 837 839 840 842 843 845 846 847 848 849 850 851 852 853 854 855 856 856 857 858 859 860 860 861 862 863 864 865 865 865 866 867 868 869 870 871 872 873 873 872 872 871 870 868 867 866 865 865
766 778 789 796 793 792 793 793 789 788 801 807 807 810 807 804 801 797 794 792 793 793 790 789 789 790 790 790 791 793 795 794 793 796 798 801 804 806 810 813 815 818 821 824 826 828 830 832 834 836 838 840 841 842 844 845 847 848 848 850 850 851 853 853 854 856 857 857 858 859 860 860 861 862 864 864 865 865 865 866 867 868 868 869 870 871 873 873 872 872 870 869 868 868 866 864 864
759 773 782 786 788 793 793 793 793 794 806 812 809 812 810 804 802 798 796 797 798 796 794 791 790 791 790 789 792 793 793 792 793 796 797 800 804 806 809 812 815 818 821 824 825 828 830 832 834 836 837 840 841 842 843 844 846 847 848 849 850 851 852 853 854 855 856 857 858 859 860 860 861 862 863 864 865 865 866 867 867 868 868 869 870 870 871 872 871 871 870 869 868 868 867 864 864
753 762 774 784 786 790 794 795 797 801 811 817 814 818 816 806 802 800 798 799 797 796 796 794 790 791 791 790 792 793 793 794 794 796 798 800 803 806 809 811 814 818 820 823 825 827 829 831 833 835 837 839 840 842 842 844 845 846 847 848 849 851 852 852 853 854 855 856 858 859 859 860 861 862 863 864 865 865 865 867 867 868 869 869 869 869 870 870 870 870 870 869 868 868 867 865 866
753 757 768 781 782 787 797 801 802 802 808 815 816 819 820 812 808 805 802 799 797 797 800 800 792 789 790 788 789 792 794 796 796 797 797 799 802 805 808 811 814 817 819 822 825 827 829 831 833 834 836 838 839 841 842 844 845 846 847 847 848 850 851 852 853 854 855 856 857 858 859 860 861 862 863 864 865 865 865 866 867 868 869 869 869 869 869 870 870 870 870 870 869 868 867 867 868
756 751 758 772 775 775 785 798 801 801 805 810 816 828 827 818 816 813 805 802 802 800 801 803 795 787 787 787 788 791 792 793 796 797 797 798 801 804 807 810 813 815 818 820 823 826 828 830 832 834 835 837 839 840 842 843 844 846 847 847 848 849 851 852 852 853 854 856 857 858 859 859 860 862 863 864 865 865 866 866 867 868 868 869 869 869 870 870 870 870 870 870 870 870 869 869 869
758 745 741 751 762 766 778 793 799 811 818 809 817 839 836 819 815 815 810 808 807 804 803 803 798 790 788 789 790 791 791 791 792 794 796 798 800 803 806 809 811 814 817 819 822 824 827 829 831 833 835 836 838 840 841 843 844 845 847 847 848 849 850 851 852 853 854 855 856 857 858 859 860 861 862 863 864 865 866 867 867 868 868 869 869 869 870 870 871 871 871 871 871 871 871 870 869
763 744 728 733 747 763 781 786 793 815 822 808 813 834 838 827 818 812 810 812 810 808 806 802 798 793 790 790 790 790 790 790 792 792 794 797 800 803 806 808 810 812 815 817 820 823 826 828 830 832 834 835 837 839 841 842 843 845 846 847 848 849 850 850 852 853 854 854 855 856 857 858 860 861 862 863 863 864 865 866 867 867 868 868 869 869 869 870 871 871 871 872 872 872 872 870 870
761 741 731 735 741 756 773 776 784 799 804 806 808 815 831 834 822 810 808 813 814 811 808 802 797 794 790 789 788 788 789 789 792 793 793 796 800 803 805 807 809 811 814 816 819 822 824 827 829 831 833 834 836 838 840 841 843 844 845 846 847 849 850 851 852 852 853 854 855 856 857 858 859 860 862 862 863 864 865 866 866 866 867 868 869 869 869 870 870 871 871 872 872 872 872 871 871
750 734 734 739 741 747 756 765 777 785 796 812 806 805 830 835 816 809 810 814 816 813 808 802 797 794 791 790 787 786 787 787 789 792 792 794 798 802 804 805 807 810 813 815 817 821 824 826 829 831 832 834 835 837 839 841 842 844 845 846 847 848 849 850 851 852 853 854 854 856 857 858 859 860 861 862 863 864 864 865 866 866 866 868 869 869 869 870 870 871 871 872 872 872 872 872 872
739 733 736 740 741 741 745 754 768 783 798 808 799 796 821 828 813 813 817 815 813 809 805 800 796 795 792 790 787 785 787 787 787 789 790 793 796 800 802 803 805 807 811 815 817 820 824 826 829 830 832 833 834 836 838 840 842 843 844 845 846 847 848 849 851 852 853 853 854 855 856 857 858 859 860 861 862 863 864 865 866 866 867 867 868 868 869 870 870 871 871 872 872 872 872 873 873
733 739 746 750 749 745 750 750 757 787 801 795 788 788 806 821 811 805 807 802 798 801 803 798 795 795 791 788 786 784 785 786 787 787 788 791 794 797 800 802 803 806 809 813 817 820 823 826 828 830 832 833 834 835 837 839 840 842 843 844 846 846 847 848 850 851 852 853 854 854 855 856 857 858 859 860 861 862 863 864 865 866 866 867 868 868 868 869 870 870 871 872 872 872 872 873 873
737 747 754 764 764 759 766 762 765 796 804 790 787 789 803 819 807 793 790 785 785 793 798 796 795 794 790 789 787 784 783 784 785 787 788 789 793 795 798 800 802 805 808 811 817 820 822 825 827 829 831 832 834 835 836 838 839 841 842 844 845 846 847 847 848 850 851 852 853 854 855 856 857 857 858 859 860 862 862 863 864 865 865 866 867 867 867 868 868 869 870 871 871 872 872 873 874
748 756 764 779 782 782 792 787 787 800 798 789 789 793 808 813 795 782 781 780 780 785 789 791 791 790 788 788 787 783 781 783 784 785 787 788 791 793 796 799 801 803 806 810 815 818 820 823 826 828 830 831 833 834 835 837 838 840 841 843 844 845 846 847 848 849 850 851 852 853 854 855 856 857 857 858 859 860 861 862 863 864 864 865 866 866 866 867 867 868 869 870 870 871 871 872 873
758 764 771 784 789 802 815 807 803 802 795 792 788 793 812 811 790 775 772 774 776 776 782 786 786 786 786 784 783 781 780 781 782 783 786 787 789 792 795 798 801 802 805 809 813 816 819 822 824 827 829 830 832 833 834 836 837 839 840 842 843 844 845 846 847 848 849 850 851 852 853 854 855 856 856 857 858 859 860 861 862 863 863 864 864 865 866 866 867 867 868 869 869 870 870 871 872
752 752 760 774 776 790 806 808 811 806 798 798 794 798 811 807 789 771 764 767 769 771 776 781 785 785 784 783 782 782 780 779 781 782 784 785 787 791 793 797 800 802 804 807 811 815 818 821 823 825 828 829 831 832 833 835 836 838 839 841 842 843 844 845 847 848 848 849 850 851 852 853 853 854 855 856 857 858 859 860 861 861 862 862 863 864 865 865 866 866 867 868 868 869 870 871 872
745 739 756 769 760 764 777 784 789 789 794 803 803 805 801 790 780 767 764 767 766 771 775 777 784 784 783 785 783 782 780 778 779 781 783 784 787 790 792 795 799 801 803 805 808 813 816 819 822 824 826 828 830 831 833 834 835 837 838 840 841 842 843 845 846 847 847 848 849 850 851 852 852 853 854 855 856 857 858 859 860 860 860 861 862 863 864 865 865 866 866 867 868 869 869 870 871
745 744 758 755 741 748 766 775 773 778 796 797 794 805 799 788 785 771 768 774 770 772 776 777 781 781 782 785 783 783 783 780 778 779 782 783 785 789 791 794 797 799 802 804 807 811 814 817 820 823 825 827 829 830 831 833 834 836 837 839 840 841 842 844 844 846 846 847 848 849 850 851 851 852 853 854 855 856 857 858 859 859 859 860 861 862 863 864 864 865 865 866 867 868 868 869 870
749 754 747 737 739 745 757 776 781 785 798 789 786 805 804 798 798 780 772 779 775 773 775 776 779 780 782 783 782 784 783 781 779 777 780 782 784 788 790 792 796 798 801 803 806 809 812 816 819 821 823 825 827 829 830 832 833 835 836 837 839 840 841 842 843 844 845 846 847 848 849 850 850 851 852 853 854 855 856 857 858 859 859 859 860 861 862 862 863 863 864 865 866 866 867 867 869
740 743 731 737 760 766 764 780 791 794 800 793 791 800 796 793 794 784 781 782 778 775 774 776 778 779 781 782 782 784 784 783 781 778 779 781 783 786 788 791 794 797 800 802 805 808 811 815 817 819 822 823 825 827 829 831 832 833 835 836 837 839 840 841 842 843 844 845 846 847 848 848 849 850 851 851 853 854 855 856 857 858 858 859 859 860 861 861 862 862 863 864 865 865 866 866 867
736 738 735 737 749 758 760 768 777 788 799 800 798 800 798 791 781 777 781 778 775 777 775 775 777 777 778 780 781 784 785 784 782 779 779 780 783 785 787 790 793 795 799 801 804 807 809 812 815 817 820 821 824 825 827 829 830 832 833 835 836 837 838 840 841 842 843 844 845 846 847 847 848 849 850 850 852 853 854 855 856 857 857 858 859 859 860 861 861 862 862 863 864 864 865 865 866
749 753 754 750 745 748 755 754 753 765 786 796 796 799 799 785 770 770 775 775 774 774 773 774 774 774 775 776 777 781 782 783 782 780 778 778 781 784 786 790 792 795 798 800 803 806 808 810 813 815 817 819 821 823 825 827 829 830 832 833 835 836 837 839 840 841 842 843 844 845 845 846 847 848 849 850 851 852 853 854 855 856 856 857 857 858 859 860 860 861 861 862 863 863 864 864 865
744 751 753 753 750 755 769 771 753 747 763 775 781 796 797 776 764 768 770 770 770 770 773 773 770 770 770 770 772 775 778 780 781 781 780 779 780 783 785 788 792 794 797 799 802 805 807 809 811 813 815 816 819 821 823 826 827 829 830 832 833 835 836 838 839 840 841 842 843 843 844 845 846 847 848 849 850 851 851 852 853 854 855 856 856 857 858 859 859 860 860 861 862 862 863 863 864